Regional Weather Roundup
Issued by NWS State College, PA

Home | Current Version | Previous Version | Graphics & Text | Print | Product List | Glossary On
Versions: 1 2 3 4 5 6 7 8 9 10 11 12 13 14 15 16 17 18 19 20 21 22 23 24 25 26 27 28 29 30 31 32 33 34 35 36 37 38 39 40 41 42 43 44 45 46 47 48 49 50
000
ASUS41 KCTP 251003
RWRCTP

REGIONAL WEATHER ROUNDUP
NATIONAL WEATHER SERVICE STATE COLLEGE PA
600 AM EDT THU AUG 25 2016

Note: "fair" indicates few or no clouds below 12,000 feet with no
significant weather and/or obstructions to visibility.

* = STATION THAT DOES NOT REPORT PRECIPITATION /E.G. RAIN...SNOW...ETC/
    THUNDER OR FOG.

PAZ002>004-007>009-013>016-020>023-029>032-251100-
WESTERN PENNSYLVANIA

CITY           SKY/WX    TMP DP  RH WIND       PRES   REMARKS
ERIE           CLOUDY    74  71  91 SW12      29.95S
MEADVILLE      CLOUDY    70  68  93 SW12G17   30.01R
FRANKLIN*      CLOUDY    70  66  88 SW9       30.03R
NEW CASTLE     CLOUDY    71  70  96 W6        30.03S
BEAVER COUNTY  NOT AVBL
BUTLER*        NOT AVBL
PITTSBURGH INT CLOUDY    72  68  87 SW8       30.04F
PITTSBURGH     LGT RAIN  72  68  87 SW8       30.05S FOG
INDIANA*       CLOUDY    73  68  83 SW10      30.08F
LATROBE        LGT RAIN  73  70  88 SW9       30.08R
WASHINGTON CO* CLOUDY    72  66  83 SW6       30.09S
$$

PAZ004>006-010>012-017>019-024>028-033>037-041-042-045-046-049>053-251100-
CENTRAL PENNSYLVANIA

CITY           SKY/WX    TMP DP  RH WIND       PRES   REMARKS
BRADFORD       LGT RAIN  68  67  96 S5        30.06R
DUBOIS         LGT RAIN  69  65  86 S8        30.04F
CLEARFIELD     CLOUDY    66  65  96 N3        30.07F
JOHNSTOWN      CLOUDY    70  65  84 S14       30.11F
ALTOONA        CLOUDY    66  65  96 SW5       30.10F
STATE COLLEGE  PTCLDY    68  64  88 W3        30.08S
WILLIAMSPORT   PTCLDY    71  64  78 VRB3      30.06R
SELINSGROVE    CLOUDY    66  66 100 S3        30.09R
FT INDIANTOWN  CLOUDY    62  62 100 NE2       30.11S
CAPITAL CITY   CLOUDY    70  62  76 CALM      30.10S
HARRISBURG     MOCLDY    69  64  84 SE5       30.10S
YORK           CLEAR     66  61  84 CALM      30.11S
$$

PAZ038>040-043-044-047-048-054-055-060>062-067>071-251100-
EASTERN PENNSYLVANIA

CITY           SKY/WX    TMP DP  RH WIND       PRES   REMARKS
SCRANTON       CLEAR     67  62  84 CALM      30.10F
MOUNT POCONO   CLEAR     62  32  32 W6        30.15S
ALLENTOWN      CLEAR     64  60  87 CALM      30.12S
QUAKERTOWN*    SUNNY     63  61  94 CALM      30.13F
READING        CLEAR     67  62  84 S3        30.10F
LANCASTER      CLOUDY    64  64 100 SE3       30.11F
COATESVILLE    SUNNY     64  64 100 CALM      30.14F
POTTSTOWN      CLEAR     65  63  93 S3        30.14S
BLUE BELL      PTCLDY    64  63  94 CALM      30.13S
DOYLESTOWN     CLEAR     65  63  93 SE3       30.13S
WILLOW GROVE   NOT AVBL
NORTH PHILA    CLEAR     71  62  73 SW7       30.14F
PHILADELPHIA   PTCLDY    69  61  75 SW5       30.14S
$$



USA.gov is the U.S. government's official web portal to all federal, state and local government web resources and services.